Lid_Strength_Index
5 5 5 5 5 5 5 5 5 5 5 4 4 4 3 3 4 5 6 6 5 7 7 5 5 5 6 6 8 7 9 8 9 11 11 12 11 11 11 10 11 12 14 13 13 15 16 9 10 14 12 11 11 9
4 5 5 5 5 5 5 5 5 5 5 5 4 4 3 3 3 5 6 5 5 4 5 3 3 3 3 4 5 6 7 8 8 10 10 11 11 10 11 13 8 12 11 13 12 12 8 9 11 9 9 11 12 11
5 5 5 4 5 5 6 5 5 5 5 4 4 3 3 2 3 4 4 5 3 3 3 4 5 3 2 3 3 6 5 5 6 5 8 9 12 9 12 11 11 8 7 11 11 10 10 9 8 8 7 9 8 8
5 5 5 5 5 6 6 6 5 5 4 4 3 3 3 3 3 3 4 3 3 4 6 5 3 4 3 3 3 3 4 4 5 6 8 10 10 8 10 9 10 8 9 10 11 10 10 8 8 7 7 7 7 7
6 5 5 5 6 6 6 6 5 4 3 3 3 2 2 2 3 2 2 2 3 4 6 5 4 3 3 3 4 4 4 6 7 8 8 9 8 8 7 8 9 7 10 12 13 10 11 10 6 6 7 8 8 8
5 5 6 6 6 6 6 5 4 3 3 3 2 2 2 2 2 1 3 2 2 3 4 8 5 4 3 3 4 5 5 6 6 6 7 6 6 7 10 11 8 6 7 7 9 6 6 5 5 6 6 7 7 8
6 6 6 6 6 5 5 4 4 3 3 2 2 2 1 1 1 2 4 2 2 2 4 7 6 5 5 5 4 4 5 5 5 6 6 7 7 8 11 12 7 6 6 6 5 5 6 6 7 6 6 6 6 6
7 6 6 6 6 5 4 4 3 3 3 2 2 1 1 1 1 2 1 1 2 3 4 7 7 6 5 6 6 5 5 5 6 6 6 7 8 9 11 8 6 5 5 6 5 5 6 4 4 5 5 5 6 7
7 6 6 6 5 4 4 4 3 3 3 2 1 1 1 2 3 3 0 1 1 2 6 6 9 10 6 6 7 6 5 8 6 7 7 7 10 11 9 7 6 5 6 6 5 5 5 5 5 5 5 5 6 6
7 6 6 5 4 4 4 3 3 3 3 1 0 3 4 3 2 1 2 3 3 4 4 7 7 8 7 6 7 7 6 8 11 8 6 10 10 7 6 5 4 4 4 5 6 6 6 6 5 5 5 4 5 5
7 6 6 4 4 4 3 3 3 3 2 2 3 4 3 2 1 3 6 7 6 7 5 6 6 8 6 8 9 7 8 7 11 9 9 10 11 9 6 5 4 3 3 5 4 5 5 5 5 5 5 5 4 5
6 6 5 4 4 3 3 3 3 4 3 2 2 2 2 3 5 7 8 6 7 9 6 7 6 6 6 5 7 6 9 8 12 6 9 12 8 6 6 6 5 4 3 3 4 4 4 4 4 4 3 4 4 4
6 5 4 4 4 3 3 3 2 2 2 1 2 4 5 5 10 10 12 9 9 6 5 5 7 6 6 5 7 7 10 11 6 10 12 10 6 5 5 4 4 3 3 3 3 4 3 3 3 3 3 3 3 4
6 5 4 4 3 3 3 2 2 2 1 4 6 9 8 9 8 8 8 7 5 5 6 6 7 7 5 7 7 10 8 7 11 13 12 7 5 5 4 4 4 4 3 3 3 2 3 3 2 3 2 2 3 4
5 4 4 4 4 3 3 2 2 1 2 5 5 10 8 6 6 5 5 5 5 5 5 6 6 6 7 8 8 8 10 12 11 11 8 6 4 4 4 3 3 3 3 3 3 3 2 2 2 2 2 2 3 3
5 4 4 4 4 3 3 2 1 0 2 4 5 7 5 7 7 6 6 6 4 4 4 5 7 8 9 8 10 11 11 12 9 7 5 4 4 4 4 3 3 2 3 2 2 3 2 2 2 2 3 3 3 3
5 6 4 4 3 3 3 2 1 3 4 5 6 4 5 6 6 6 5 5 3 5 8 7 9 10 7 9 11 9 10 7 5 5 4 3 4 4 3 2 2 2 2 2 2 2 2 2 2 2 3 2 1 3
7 6 5 3 3 3 3 3 2 4 6 5 6 5 4 4 5 4 3 3 4 5 5 7 5 9 10 12 11 8 6 4 4 4 3 3 4 3 3 3 2 2 2 2 2 2 2 2 2 2 2 1 1 1
7 5 4 3 3 3 4 4 3 6 5 4 4 4 4 4 3 3 3 3 3 3 4 5 8 9 9 7 7 5 4 4 4 4 4 4 3 4 4 3 3 3 2 2 2 2 2 2 2 1 1 2 2 1
6 4 3 3 3 4 6 5 3 4 6 4 4 4 4 4 3 3 3 3 4 4 6 7 7 6 5 4 3 3 3 3 3 5 5 4 3 3 4 4 4 3 3 3 3 5 2 2 1 1 1 1 2 2
5 4 3 3 3 4 5 5 5 4 4 5 4 4 5 3 4 4 4 3 4 6 6 5 4 3 3 3 3 3 3 3 4 4 5 5 4 4 4 4 4 3 4 4 4 4 4 3 2 2 1 1 1 1
5 4 2 2 5 6 5 5 5 4 4 4 4 4 5 6 5 5 4 5 5 4 4 4 3 3 3 3 2 2 2 3 3 5 7 6 4 4 3 4 4 4 4 4 4 4 4 3 3 1 1 1 1 0
5 4 3 5 7 7 7 4 5 4 7 6 5 6 6 6 4 3 6 5 4 2 2 2 2 2 3 2 2 2 2 2 3 3 3 4 4 3 3 3 3 4 4 4 3 3 3 5 3 1 1 1 1 1
5 5 7 7 7 8 5 6 5 5 5 6 7 8 7 6 4 6 8 6 4 3 3 3 3 2 2 2 3 2 1 2 2 2 3 4 4 3 3 3 3 3 3 3 3 3 2 2 4 2 1 2 2 2
11 10 8 10 7 7 7 7 7 7 8 7 8 7 7 5 7 8 8 6 5 4 3 3 2 3 3 3 2 1 1 2 2 3 2 4 4 4 3 3 3 3 3 3 3 3 3 2 2 2 2 3 3 3
14 10 8 7 7 7 7 8 8 8 7 8 7 6 5 7 9 9 6 5 4 4 3 3 4 4 3 3 3 2 1 1 2 3 3 3 3 4 4 5 5 4 2 3 3 3 3 3 3 3 3 4 7 4
12 9 7 5 6 6 7 6 5 6 8 8 7 7 7 9 9 6 4 3 3 2 1 1 1 3 4 3 2 2 1 2 3 3 3 3 3 3 4 5 6 5 4 3 3 3 3 3 3 3 3 3 4 4
8 7 8 6 6 6 7 7 7 8 7 5 6 8 8 8 8 4 3 1 1 1 1 1 1 1 2 3 3 3 4 4 4 4 4 4 4 4 5 4 4 9 4 3 3 2 2 3 3 3 4 4 4 4
8 5 5 7 7 6 6 7 7 5 4 5 6 7 6 4 2 2 1 1 0 1 2 2 2 2 2 3 3 3 3 3 3 4 4 5 5 5 4 4 4 4 3 2 9 6 4 4 4 4 4 4 4 4
6 5 6 7 7 7 5 5 4 3 3 3 3 3 3 3 1 1 1 1 1 2 1 1 1 2 2 2 3 3 3 4 3 3 4 5 6 5 5 5 4 4 4 3 2 3 8 4 6 4 5 5 5 5
4 5 7 7 7 5 5 4 4 4 3 3 3 4 4 3 2 1 1 1 1 1 1 2 1 1 1 3 3 3 3 3 3 3 4 4 4 4 4 4 4 3 3 2 2 3 3 4 5 5 6 6 6 7
6 6 6 7 6 4 4 4 5 5 5 5 4 4 4 4 5 2 1 0 1 2 3 2 2 2 1 1 1 1 6 2 2 3 4 4 4 4 3 3 3 3 3 3 3 4 5 5 6 6 6 7 7 7
6 6 6 6 6 6 5 5 5 6 5 5 5 4 4 4 5 2 0 -0 0 1 1 0 0 1 1 1 1 2 4 1 4 8 8 8 7 6 4 3 3 3 3 3 4 4 5 6 6 6 6 7 7 7